Location: Mexico
(19.4000°N, 99.1500°W)
Time: 11:53:14
(UTC-06:00)

ISS - Pass Details

Date: 18 January 2020
Orbit: 415 x 422 km, 51.6° (Epoch: 23 January)

Event Time Altitude Azimuth Distance (km) Brightness Sun altitude
Rises 18:59:29 0° 235° (SW) 2,357 1.8 -9.4°
Reaches altitude 10° 19:01:42 10° 245° (WSW) 1,494 0.7 -9.9°
Maximum altitude 19:04:46 32° 311° (NW) 734 -2.2 -10.6°
Drops below altitude 10° 19:07:49 10° 17° (NNE) 1,494 -1.3 -11.3°
Enters shadow 19:08:24 - 21° (NNE) 1,710 -1.0 -11.4°
